SCP
0 0 -0 0 0 0 0 0 0 0 0 0 0 0 0 0 0 0 0 0 0 0 0 0 0 0 0 0 0 0 0 0 0 0 0 0 0 0 0 0 0 0 0
0 0 0 0 0 0 0 0 0 0 0 0 0 0 0 0 0 0 0 0 0 0 0 0 0 0 0 0 0 0 0 0 0 0 0 0 0 0 0 0 0 0 0
0 0 0 0 0 0 0 0 0 0 0 0 0 0 0 0 0 0 0 0 0 0 0 0 0 0 0 0 0 0 0 0 0 0 0 0 0 0 0 0 0 0 0
0 0 0 0 0 0 0 0 0 0 0 0 0 0 0 0 0 0 0 0 0 0 0 0 0 0 0 0 0 0 0 0 0 0 0 0 0 0 0 0 0 0 0
0 0 0 0 0 0 0 0 -0 -0 0 0 0 0 0 0 0 0 0 0 0 0 0 0 0 0 0 0 0 0 0 0 0 0 0 0 0 0 0 0 0 0 0
-0 0 0 0 0 0 0 0 0 0 0 0 0 0 0 0 0 0 0 0 0 0 0 0 0 0 0 0 0 0 0 0 0 0 0 0 0 0 0 0 0 0 0
-0 -0 -0 0 0 0 -0 -0 0 0 0 0 0 0 0 0 0 0 0 0 0 0 0 0 0 0 0 0 0 0 0 0 0 0 0 0 0 0 0 0 0 0 0
-0 -0 0 0 0 0 0 0 0 0 0 0 0 0 0 0 0 0 0 0 0 0 0 0 0 0 0 0 0 0 0 0 0 0 0 0 0 0 0 0 0 0 0
0 0 0 0 0 0 0 0 0 0 0 0 0 0 0 0 0 0 0 0 0 0 0 0 0 0 0 0 0 0 0 0 0 0 0 0 0 0 0 0 0 0 0
0 0 0 0 0 0 0 0 0 0 0 0 0 0 0 0 0 0 0 0 0 0 0 0 0 0 0 0 0 0 0 0 0 0 0 0 0 0 0 0 0 0 0
0 0 0 0 0 0 0 -0 0 0 0 0 0 0 0 0 0 0 0 0 0 0 0 0 0 0 0 0 0 0 0 0 0 0 0 0 0 0 0 0 0 0 0
0 0 0 0 0 0 0 0 0 0 0 0 0 0 0 0 0 0 0 0 0 0 0 0 0 0 0 0 0 0 0 0 0 0 0 0 0 0 0 0 0 0 0
0 0 0 0 0 0 0 0 0 0 0 0 0 0 0 0 0 0 0 0 0 0 0 0 0 0 0 0 0 0 0 0 0 0 0 0 0 0 0 0 0 0 0
0 0 0 0 0 0 0 0 0 0 0 0 0 0 0 0 0 0 0 0 0 0 0 0 0 0 0 0 0 0 0 0 0 0 0 0 0 0 0 0 0 0 0
0 0 0 0 0 0 0 0 0 0 0 0 0 0 0 0 0 0 0 0 0 0 0 0 0 0 0 0 0 0 0 0 0 0 0 0 0 0 0 0 0 0 0
0 0 0 0 0 0 0 0 0 0 0 0 0 0 0 0 0 0 0 0 0 0 0 0 0 0 0 0 0 0 0 0 0 0 0 0 0 0 0 0 0 0 0
0 0 0 0 0 0 0 0 0 0 0 0 0 0 0 0 0 0 0 0 0 0 0 0 0 0 0 0 0 0 0 0 0 0 0 0 0 0 0 0 0 0 0
0 0 0 0 0 0 0 0 0 0 0 0 0 0 0 0 0 0 0 0 0 0 0 0 0 0 0 0 0 0 0 0 0 0 0 0 0 0 0 0 0 0 0
0 0 0 0 0 0 0 0 0 0 0 0 0 0 0 0 0 0 0 0 0 0 0 0 0 0 0 0 0 0 0 0 0 0 0 0 0 0 0 0 0 0 0
0 0 0 0 0 0 0 0 0 0 0 0 0 0 0 0 0 0 0 0 0 0 0 0 0 0 0 0 0 0 0 0 0 0 0 0 0 0 0 0 0 0 0
0 0 0 0 0 0 0 0 0 0 0 0 0 0 0 0 0 0 0 0 0 0 0 0 0 0 0 0 0 0 0 0 0 0 0 0 0 0 0 0 0 0 0
0 0 0 0 0 0 0 0 0 0 0 0 0 0 0 0 0 0 0 0 0 0 0 0 0 0 0 0 0 0 0 0 0 0 0 0 0 0 0 0 0 0 0
0 0 0 0 0 0 0 0 0 0 0 0 0 0 0 0 0 0 0 0 0 0 0 0 0 0 0 0 0 0 0 0 0 0 0 0 0 0 0 0 0 0 0
0 0 0 0 0 0 0 0 0 0 0 0 0 0 0 0 0 0 0 0 0 0 0 0 0 0 0 0 0 0 0 0 0 0 0 0 0 0 0 0 0 0 0
0 0 0 0 0 0 0 0 0 0 0 0 0 0 0 0 0 0 0 0 0 0 0 0 0 0 0 0 0 0 0 0 0 0 0 0 0 0 0 0 0 0 0
0 0 0 0 0 0 0 0 0 0 0 0 0 0 0 0 0 0 0 0 0 0 0 0 0 0 0 0 0 0 0 0 0 0 0 0 0 0 0 0 0 0 0
Wind_Speed_500mb
41 40 38 36 35 36 37 39 41 42 43 46 48 50 51 52 51 53 55 55 54 57 60 60 64 74 72 73 78 85 90 89 95 89 76 62 63 54 67 65 66 56 55
40 41 41 41 40 42 44 45 46 48 50 52 56 58 59 59 58 56 56 57 59 59 58 60 65 62 68 67 72 79 85 77 93 68 82 82 79 63 57 71 73 62 60
36 37 38 40 41 43 47 51 54 57 58 60 64 66 67 64 61 57 59 59 58 58 58 63 64 62 64 70 66 70 71 76 81 73 80 75 76 66 61 65 76 70 67
45 46 46 46 48 48 49 53 57 59 61 61 61 64 66 66 66 66 63 61 60 58 57 60 64 64 67 69 70 65 68 76 67 81 83 88 71 66 62 63 71 68 64
54 54 53 54 56 58 59 59 60 60 60 62 62 61 62 62 64 66 64 62 61 62 59 57 58 61 63 63 66 66 71 67 71 71 75 78 70 59 61 61 68 65 63
61 60 57 55 56 57 58 59 62 63 60 58 58 57 57 57 60 60 59 55 53 53 55 53 54 54 55 57 53 57 51 52 51 51 50 52 53 51 55 54 60 57 57
63 61 61 61 59 58 57 55 54 54 55 54 53 52 51 51 53 56 55 44 39 39 40 40 38 38 40 39 38 34 33 36 41 48 47 49 49 42 43 45 47 47 49
62 60 58 57 56 56 55 55 54 52 50 47 45 44 45 46 49 47 46 44 39 35 32 31 30 29 28 25 24 25 26 28 30 27 26 27 30 32 33 34 38 44 43
60 60 61 61 60 58 55 52 50 47 44 44 42 41 42 42 45 46 45 38 34 33 33 31 30 29 27 25 25 25 26 26 28 30 30 31 34 37 37 33 33 37 41
60 59 58 57 56 53 52 49 46 44 42 41 40 40 40 42 43 41 36 33 31 29 28 27 28 30 30 27 24 20 21 23 24 28 26 26 27 29 33 30 29 29 34
54 51 49 47 44 43 42 44 42 40 39 39 38 37 36 38 36 35 33 30 27 27 28 27 29 33 38 35 29 24 21 23 24 24 24 21 18 18 20 21 20 18 20
42 40 39 38 38 38 37 36 35 35 35 33 32 31 31 33 33 32 31 29 26 26 26 26 28 31 30 30 24 23 22 20 19 19 20 19 19 21 23 24 26 27 27
32 31 31 31 31 30 30 30 30 30 29 29 30 30 30 31 30 28 27 27 27 26 25 23 23 24 23 23 25 23 20 18 17 15 15 17 22 24 26 28 29 32 32
30 28 27 28 28 29 29 30 30 30 30 33 33 31 29 27 32 38 36 33 29 25 23 21 21 20 19 18 18 19 20 20 21 21 22 23 23 23 25 29 32 35 38
29 30 30 33 36 35 33 35 35 32 30 30 33 36 34 29 35 33 36 31 32 27 25 23 20 19 21 22 22 23 23 23 23 24 26 27 27 29 29 31 35 39 41
34 39 40 41 40 39 39 32 31 34 32 32 29 29 30 23 27 28 32 28 29 25 23 23 23 24 24 24 24 24 25 27 29 30 32 34 36 37 38 37 39 42 47
40 41 42 43 43 43 42 43 42 28 30 33 34 34 34 29 24 29 31 29 28 26 25 25 25 25 26 28 30 32 34 34 34 36 37 38 40 41 43 44 44 48 52
45 48 48 48 47 46 46 45 44 43 40 34 30 32 34 34 32 35 36 29 26 27 28 27 27 28 30 32 34 36 38 39 39 40 40 41 43 46 48 49 49 53 56
48 49 50 49 48 48 46 45 45 42 41 39 36 31 32 33 32 35 35 34 33 30 29 28 30 32 34 36 38 41 43 45 45 45 45 46 47 49 52 52 54 56 59
48 49 50 50 48 46 45 44 42 41 39 38 36 36 33 35 31 29 30 33 35 35 37 39 39 39 40 42 44 46 47 48 48 48 48 49 50 51 53 55 57 61 63
49 48 49 47 47 47 45 42 40 40 40 38 35 35 36 39 40 40 39 38 39 40 40 42 42 43 43 45 47 48 50 51 50 51 52 53 53 56 56 58 62 64 68
54 49 46 44 41 40 40 40 39 39 38 37 35 35 37 39 41 42 42 42 44 45 47 48 48 48 48 50 52 54 55 56 55 56 57 57 59 61 61 64 67 71 75
48 46 44 42 42 40 39 40 40 40 39 39 40 40 38 40 41 42 43 43 44 45 46 48 50 50 49 50 51 53 56 56 56 57 58 61 63 63 64 69 72 77 80
45 44 43 41 40 39 39 38 38 39 40 41 42 43 45 46 46 46 47 48 48 47 47 48 50 51 51 50 48 48 50 51 52 53 56 61 62 61 67 71 74 79 83
40 40 39 38 37 36 36 35 36 37 39 41 42 44 44 45 45 45 46 47 48 49 48 48 48 48 48 47 46 46 47 48 50 51 53 57 62 64 70 72 77 83 84
38 38 37 37 36 36 37 36 35 36 37 38 39 40 42 43 43 44 44 45 47 46 46 46 45 46 45 45 44 46 45 47 46 44 54 62 66 73 77 78 84 86 86
Wind_Direction_500mb
353 353 351 348 343 334 324 320 318 319 320 322 322 324 324 321 314 305 298 289 282 282 283 280 279 272 277 277 275 272 268 262 256 263 260 242 239 246 224 229 228 236 245
349 345 344 342 338 332 328 327 324 321 319 317 315 314 313 312 310 306 301 296 291 283 281 282 281 283 282 281 279 273 274 267 272 267 261 247 241 232 237 228 234 240 253
345 341 337 335 335 332 331 329 326 320 316 312 311 310 310 310 307 303 298 296 292 289 283 281 278 281 285 287 280 277 278 272 274 274 253 254 245 234 228 234 245 248 252
341 337 334 333 332 331 328 325 321 318 315 312 310 308 307 305 303 301 299 296 292 288 284 278 277 277 277 277 282 277 278 280 276 272 256 250 242 250 240 244 247 248 250
336 333 330 328 326 324 323 322 319 316 314 312 310 308 307 306 304 301 299 298 297 293 287 281 277 275 273 274 274 277 274 266 269 265 252 251 247 246 248 252 254 256 257
328 326 325 324 323 322 320 320 320 317 316 316 315 314 312 310 305 303 304 305 303 297 293 288 283 279 277 276 274 274 272 271 267 264 253 259 260 256 255 253 254 261 269
322 322 322 323 324 325 326 324 322 320 318 317 317 319 321 322 320 321 320 318 314 307 301 296 292 290 289 288 286 286 282 278 271 268 268 262 259 256 257 261 267 271 273
320 321 322 324 327 329 329 328 327 327 326 323 320 319 321 325 328 337 341 336 327 323 317 312 309 304 302 295 291 291 283 275 269 265 264 265 265 266 267 269 273 275 275
322 324 325 327 329 331 331 333 333 332 331 331 330 329 327 327 328 334 339 340 339 335 333 329 325 324 332 329 323 312 303 300 297 294 293 291 292 293 292 286 279 278 284
320 322 325 327 328 331 333 336 338 336 335 332 330 329 331 331 331 339 342 341 334 327 323 320 321 316 311 307 308 304 294 282 280 286 284 280 278 278 278 281 276 282 287
321 323 324 327 330 333 338 339 341 339 335 334 330 333 338 340 350 354 352 353 351 347 339 334 337 331 328 329 323 315 310 302 303 303 300 299 299 297 300 306 313 310 299
327 332 335 337 337 338 338 336 334 336 338 337 338 339 342 343 354 357 1 5 3 355 347 348 343 337 339 340 343 347 341 338 343 347 341 339 332 325 319 315 310 305 303
330 330 331 333 335 338 339 339 342 344 347 348 347 346 347 348 349 354 358 356 355 355 349 349 344 342 344 341 342 347 348 349 351 350 350 347 341 336 328 325 321 314 305
337 337 336 334 332 331 332 332 333 337 342 344 346 349 351 348 348 346 353 353 354 352 348 351 349 343 341 346 352 352 351 350 352 350 344 341 331 322 320 318 316 312 308
337 336 335 333 330 332 336 333 330 329 328 332 333 333 337 343 340 339 341 341 343 347 346 345 334 334 343 348 348 347 346 344 343 339 333 328 327 324 324 323 322 321 322
326 323 322 322 323 324 325 326 322 321 321 318 318 312 324 325 324 333 335 340 337 342 341 340 344 347 346 346 346 347 345 342 341 336 333 330 327 324 323 326 325 323 323
318 317 318 317 317 317 318 317 316 313 317 316 316 316 317 321 317 324 330 334 329 335 335 340 341 341 342 342 341 338 336 337 334 331 328 327 324 322 320 321 321 321 321
316 315 314 313 313 314 314 314 315 317 317 315 314 313 313 316 318 321 325 328 326 327 330 331 333 334 334 333 332 329 327 328 327 325 323 320 320 319 317 318 318 316 317
309 309 310 310 311 311 311 311 312 313 314 315 314 314 312 311 316 318 321 323 325 326 326 327 328 328 327 325 324 322 322 322 323 321 319 317 317 315 315 317 316 314 313
310 308 308 308 309 309 308 309 309 311 312 313 314 314 315 313 316 318 320 320 321 323 323 323 324 322 320 319 318 316 316 317 317 315 313 312 313 312 314 315 315 314 312
311 309 307 306 305 306 307 307 308 310 312 314 316 317 317 316 318 319 320 319 316 316 316 315 316 315 316 314 313 313 313 314 315 314 311 311 311 311 313 313 314 314 313
313 312 310 308 305 303 304 305 307 308 310 310 311 311 309 310 311 313 314 314 313 314 314 314 314 314 315 314 314 313 313 314 315 313 312 311 312 314 315 314 315 314 314
314 314 314 311 306 304 303 304 305 307 308 310 311 311 310 309 309 310 310 310 310 311 311 311 310 311 310 309 309 309 309 311 311 311 312 311 312 314 313 312 313 312 313
313 316 317 315 311 307 305 305 303 304 305 307 307 308 309 309 310 310 311 311 311 311 310 309 310 310 310 309 309 307 306 308 308 310 310 310 311 312 311 310 312 314 313
314 316 319 320 320 318 316 314 311 308 307 308 308 309 310 310 311 311 312 312 313 314 314 313 313 312 312 312 311 309 310 311 311 312 310 310 310 311 312 311 315 316 313
311 312 315 317 319 319 320 320 318 317 315 314 313 313 313 314 314 315 315 314 314 314 315 315 316 314 313 312 311 310 311 312 313 316 316 316 313 313 318 318 316 312 309
Wind_Speed_850mb
41 40 38 36 35 36 37 39 41 42 43 46 48 50 51 52 51 53 55 55 54 57 60 60 64 74 72 73 78 85 90 89 95 89 76 62 63 54 67 65 66 56 55
40 41 41 41 40 42 44 45 46 48 50 52 56 58 59 59 58 56 56 57 59 59 58 60 65 62 68 67 72 79 85 77 93 68 82 82 79 63 57 71 73 62 60
36 37 38 40 41 43 47 51 54 57 58 60 64 66 67 64 61 57 59 59 58 58 58 63 64 62 64 70 66 70 71 76 81 73 80 75 76 66 61 65 76 70 67
45 46 46 46 48 48 49 53 57 59 61 61 61 64 66 66 66 66 63 61 60 58 57 60 64 64 67 69 70 65 68 76 67 81 83 88 71 66 62 63 71 68 64
54 54 53 54 56 58 59 59 60 60 60 62 62 61 62 62 64 66 64 62 61 62 59 57 58 61 63 63 66 66 71 67 71 71 75 78 70 59 61 61 68 65 63
61 60 57 55 56 57 58 59 62 63 60 58 58 57 57 57 60 60 59 55 53 53 55 53 54 54 55 57 53 57 51 52 51 51 50 52 53 51 55 54 60 57 57
63 61 61 61 59 58 57 55 54 54 55 54 53 52 51 51 53 56 55 44 39 39 40 40 38 38 40 39 38 34 33 36 41 48 47 49 49 42 43 45 47 47 49
62 60 58 57 56 56 55 55 54 52 50 47 45 44 45 46 49 47 46 44 39 35 32 31 30 29 28 25 24 25 26 28 30 27 26 27 30 32 33 34 38 44 43
60 60 61 61 60 58 55 52 50 47 44 44 42 41 42 42 45 46 45 38 34 33 33 31 30 29 27 25 25 25 26 26 28 30 30 31 34 37 37 33 33 37 41
60 59 58 57 56 53 52 49 46 44 42 41 40 40 40 42 43 41 36 33 31 29 28 27 28 30 30 27 24 20 21 23 24 28 26 26 27 29 33 30 29 29 34
54 51 49 47 44 43 42 44 42 40 39 39 38 37 36 38 36 35 33 30 27 27 28 27 29 33 38 35 29 24 21 23 24 24 24 21 18 18 20 21 20 18 20
42 40 39 38 38 38 37 36 35 35 35 33 32 31 31 33 33 32 31 29 26 26 26 26 28 31 30 30 24 23 22 20 19 19 20 19 19 21 23 24 26 27 27
32 31 31 31 31 30 30 30 30 30 29 29 30 30 30 31 30 28 27 27 27 26 25 23 23 24 23 23 25 23 20 18 17 15 15 17 22 24 26 28 29 32 32
30 28 27 28 28 29 29 30 30 30 30 33 33 31 29 27 32 38 36 33 29 25 23 21 21 20 19 18 18 19 20 20 21 21 22 23 23 23 25 29 32 35 38
29 30 30 33 36 35 33 35 35 32 30 30 33 36 34 29 35 33 36 31 32 27 25 23 20 19 21 22 22 23 23 23 23 24 26 27 27 29 29 31 35 39 41
34 39 40 41 40 39 39 32 31 34 32 32 29 29 30 23 27 28 32 28 29 25 23 23 23 24 24 24 24 24 25 27 29 30 32 34 36 37 38 37 39 42 47
40 41 42 43 43 43 42 43 42 28 30 33 34 34 34 29 24 29 31 29 28 26 25 25 25 25 26 28 30 32 34 34 34 36 37 38 40 41 43 44 44 48 52
45 48 48 48 47 46 46 45 44 43 40 34 30 32 34 34 32 35 36 29 26 27 28 27 27 28 30 32 34 36 38 39 39 40 40 41 43 46 48 49 49 53 56
48 49 50 49 48 48 46 45 45 42 41 39 36 31 32 33 32 35 35 34 33 30 29 28 30 32 34 36 38 41 43 45 45 45 45 46 47 49 52 52 54 56 59
48 49 50 50 48 46 45 44 42 41 39 38 36 36 33 35 31 29 30 33 35 35 37 39 39 39 40 42 44 46 47 48 48 48 48 49 50 51 53 55 57 61 63
49 48 49 47 47 47 45 42 40 40 40 38 35 35 36 39 40 40 39 38 39 40 40 42 42 43 43 45 47 48 50 51 50 51 52 53 53 56 56 58 62 64 68
54 49 46 44 41 40 40 40 39 39 38 37 35 35 37 39 41 42 42 42 44 45 47 48 48 48 48 50 52 54 55 56 55 56 57 57 59 61 61 64 67 71 75
48 46 44 42 42 40 39 40 40 40 39 39 40 40 38 40 41 42 43 43 44 45 46 48 50 50 49 50 51 53 56 56 56 57 58 61 63 63 64 69 72 77 80
45 44 43 41 40 39 39 38 38 39 40 41 42 43 45 46 46 46 47 48 48 47 47 48 50 51 51 50 48 48 50 51 52 53 56 61 62 61 67 71 74 79 83
40 40 39 38 37 36 36 35 36 37 39 41 42 44 44 45 45 45 46 47 48 49 48 48 48 48 48 47 46 46 47 48 50 51 53 57 62 64 70 72 77 83 84
38 38 37 37 36 36 37 36 35 36 37 38 39 40 42 43 43 44 44 45 47 46 46 46 45 46 45 45 44 46 45 47 46 44 54 62 66 73 77 78 84 86 86
Wind_Direction_850mb
353 353 351 348 343 334 324 320 318 319 320 322 322 324 324 321 314 305 298 289 282 282 283 280 279 272 277 277 275 272 268 262 256 263 260 242 239 246 224 229 228 236 245
349 345 344 342 338 332 328 327 324 321 319 317 315 314 313 312 310 306 301 296 291 283 281 282 281 283 282 281 279 273 274 267 272 267 261 247 241 232 237 228 234 240 253
345 341 337 335 335 332 331 329 326 320 316 312 311 310 310 310 307 303 298 296 292 289 283 281 278 281 285 287 280 277 278 272 274 274 253 254 245 234 228 234 245 248 252
341 337 334 333 332 331 328 325 321 318 315 312 310 308 307 305 303 301 299 296 292 288 284 278 277 277 277 277 282 277 278 280 276 272 256 250 242 250 240 244 247 248 250
336 333 330 328 326 324 323 322 319 316 314 312 310 308 307 306 304 301 299 298 297 293 287 281 277 275 273 274 274 277 274 266 269 265 252 251 247 246 248 252 254 256 257
328 326 325 324 323 322 320 320 320 317 316 316 315 314 312 310 305 303 304 305 303 297 293 288 283 279 277 276 274 274 272 271 267 264 253 259 260 256 255 253 254 261 269
322 322 322 323 324 325 326 324 322 320 318 317 317 319 321 322 320 321 320 318 314 307 301 296 292 290 289 288 286 286 282 278 271 268 268 262 259 256 257 261 267 271 273
320 321 322 324 327 329 329 328 327 327 326 323 320 319 321 325 328 337 341 336 327 323 317 312 309 304 302 295 291 291 283 275 269 265 264 265 265 266 267 269 273 275 275
322 324 325 327 329 331 331 333 333 332 331 331 330 329 327 327 328 334 339 340 339 335 333 329 325 324 332 329 323 312 303 300 297 294 293 291 292 293 292 286 279 278 284
320 322 325 327 328 331 333 336 338 336 335 332 330 329 331 331 331 339 342 341 334 327 323 320 321 316 311 307 308 304 294 282 280 286 284 280 278 278 278 281 276 282 287
321 323 324 327 330 333 338 339 341 339 335 334 330 333 338 340 350 354 352 353 351 347 339 334 337 331 328 329 323 315 310 302 303 303 300 299 299 297 300 306 313 310 299
327 332 335 337 337 338 338 336 334 336 338 337 338 339 342 343 354 357 1 5 3 355 347 348 343 337 339 340 343 347 341 338 343 347 341 339 332 325 319 315 310 305 303
330 330 331 333 335 338 339 339 342 344 347 348 347 346 347 348 349 354 358 356 355 355 349 349 344 342 344 341 342 347 348 349 351 350 350 347 341 336 328 325 321 314 305
337 337 336 334 332 331 332 332 333 337 342 344 346 349 351 348 348 346 353 353 354 352 348 351 349 343 341 346 352 352 351 350 352 350 344 341 331 322 320 318 316 312 308
337 336 335 333 330 332 336 333 330 329 328 332 333 333 337 343 340 339 341 341 343 347 346 345 334 334 343 348 348 347 346 344 343 339 333 328 327 324 324 323 322 321 322
326 323 322 322 323 324 325 326 322 321 321 318 318 312 324 325 324 333 335 340 337 342 341 340 344 347 346 346 346 347 345 342 341 336 333 330 327 324 323 326 325 323 323
318 317 318 317 317 317 318 317 316 313 317 316 316 316 317 321 317 324 330 334 329 335 335 340 341 341 342 342 341 338 336 337 334 331 328 327 324 322 320 321 321 321 321
316 315 314 313 313 314 314 314 315 317 317 315 314 313 313 316 318 321 325 328 326 327 330 331 333 334 334 333 332 329 327 328 327 325 323 320 320 319 317 318 318 316 317
309 309 310 310 311 311 311 311 312 313 314 315 314 314 312 311 316 318 321 323 325 326 326 327 328 328 327 325 324 322 322 322 323 321 319 317 317 315 315 317 316 314 313
310 308 308 308 309 309 308 309 309 311 312 313 314 314 315 313 316 318 320 320 321 323 323 323 324 322 320 319 318 316 316 317 317 315 313 312 313 312 314 315 315 314 312
311 309 307 306 305 306 307 307 308 310 312 314 316 317 317 316 318 319 320 319 316 316 316 315 316 315 316 314 313 313 313 314 315 314 311 311 311 311 313 313 314 314 313
313 312 310 308 305 303 304 305 307 308 310 310 311 311 309 310 311 313 314 314 313 314 314 314 314 314 315 314 314 313 313 314 315 313 312 311 312 314 315 314 315 314 314
314 314 314 311 306 304 303 304 305 307 308 310 311 311 310 309 309 310 310 310 310 311 311 311 310 311 310 309 309 309 309 311 311 311 312 311 312 314 313 312 313 312 313
313 316 317 315 311 307 305 305 303 304 305 307 307 308 309 309 310 310 311 311 311 311 310 309 310 310 310 309 309 307 306 308 308 310 310 310 311 312 311 310 312 314 313
314 316 319 320 320 318 316 314 311 308 307 308 308 309 310 310 311 311 312 312 313 314 314 313 313 312 312 312 311 309 310 311 311 312 310 310 310 311 312 311 315 316 313
311 312 315 317 319 319 320 320 318 317 315 314 313 313 313 314 314 315 315 314 314 314 315 315 316 314 313 312 311 310 311 312 313 316 316 316 313 313 318 318 316 312 309